Time,TemperatureF,DewpointF,PressureIn,WindDirection,WindDirectionDegrees,WindSpeedMPH,WindSpeedGustMPH,Humidity,HourlyPrecipIn,Conditions,Clouds,dailyrainin,SoftwareType,DateUTC
2013-04-30 00:00:00,44.2,38.7,30.25,WSW,241,0.0,0.0,81,0.00,,,0.00,Wunderground v.1.15,2013-04-30 04:00:00,
2013-04-30 00:10:00,44.2,38.7,30.25,WSW,241,0.0,0.0,81,0.00,,,0.00,Wunderground v.1.15,2013-04-30 04:10:00,
2013-04-30 00:20:00,44.1,38.3,30.25,SE,132,0.0,0.0,80,0.00,,,0.00,Wunderground v.1.15,2013-04-30 04:20:00,
2013-04-30 00:30:00,44.1,38.0,30.25,SE,132,0.0,0.0,79,0.00,,,0.00,Wunderground v.1.15,2013-04-30 04:30:00,
2013-04-30 00:40:00,43.9,38.1,30.25,SW,234,0.0,0.0,80,0.00,,,0.00,Wunderground v.1.15,2013-04-30 04:40:00,
2013-04-30 00:50:00,43.8,37.7,30.24,WSW,237,0.0,0.0,79,0.00,,,0.00,Wunderground v.1.15,2013-04-30 04:50:00,
2013-04-30 01:00:00,44.6,37.5,30.24,WSW,238,0.0,0.0,76,0.00,,,0.00,Wunderground v.1.15,2013-04-30 05:00:00,
2013-04-30 01:10:00,45.1,38.0,30.24,SSE,152,1.0,1.0,76,0.00,,,0.00,Wunderground v.1.15,2013-04-30 05:10:00,
2013-04-30 01:20:00,45.1,38.0,30.23,South,184,1.0,1.0,76,0.00,,,0.00,Wunderground v.1.15,2013-04-30 05:20:00,
2013-04-30 01:30:00,44.8,37.7,30.23,South,188,0.0,0.0,76,0.00,,,0.00,Wunderground v.1.15,2013-04-30 05:30:00,
2013-04-30 01:40:00,44.5,37.7,30.23,South,188,0.0,0.0,77,0.00,,,0.00,Wunderground v.1.15,2013-04-30 05:40:00,
2013-04-30 01:50:00,44.2,37.8,30.23,South,189,0.0,0.0,78,0.00,,,0.00,Wunderground v.1.15,2013-04-30 05:50:00,
2013-04-30 02:00:00,44.1,37.7,30.23,South,189,0.0,0.0,78,0.00,,,0.00,Wunderground v.1.15,2013-04-30 06:00:00,
2013-04-30 02:10:00,43.8,37.4,30.23,South,186,0.0,0.0,78,0.00,,,0.00,Wunderground v.1.15,2013-04-30 06:10:00,
2013-04-30 02:20:00,42.8,37.1,30.23,South,186,0.0,0.0,80,0.00,,,0.00,Wunderground v.1.15,2013-04-30 06:20:00,
2013-04-30 02:30:00,43.1,36.7,30.23,South,189,0.0,1.0,78,0.00,,,0.00,Wunderground v.1.15,2013-04-30 06:30:00,
2013-04-30 02:40:00,43.2,36.1,30.23,South,190,0.0,0.0,76,0.00,,,0.00,Wunderground v.1.15,2013-04-30 06:40:00,
2013-04-30 02:50:00,43.9,35.5,30.23,SSW,195,0.0,0.0,72,0.00,,,0.00,Wunderground v.1.15,2013-04-30 06:50:00,
2013-04-30 03:00:00,44.6,34.3,30.23,SSE,167,0.0,0.0,67,0.00,,,0.00,Wunderground v.1.15,2013-04-30 07:00:00,
2013-04-30 03:10:00,45.7,34.2,30.23,SW,217,1.0,1.0,64,0.00,,,0.00,Wunderground v.1.15,2013-04-30 07:10:00,
2013-04-30 03:20:00,46.1,33.8,30.23,SE,135,1.0,2.0,62,0.00,,,0.00,Wunderground v.1.15,2013-04-30 07:20:00,
2013-04-30 03:30:00,46.4,34.1,30.23,SSW,193,0.0,0.0,62,0.00,,,0.00,Wunderground v.1.15,2013-04-30 07:30:00,
2013-04-30 03:40:00,45.8,34.3,30.23,SSE,162,1.0,1.0,64,0.00,,,0.00,Wunderground v.1.15,2013-04-30 07:40:00,
2013-04-30 03:50:00,45.2,34.5,30.24,ESE,120,1.0,2.0,66,0.00,,,0.00,Wunderground v.1.15,2013-04-30 07:50:00,
2013-04-30 04:00:00,45.2,34.1,30.24,ESE,120,1.0,1.0,65,0.00,,,0.00,Wunderground v.1.15,2013-04-30 08:00:00,
2013-04-30 04:10:00,42.1,34.1,30.24,ESE,120,0.0,0.0,73,0.00,,,0.00,Wunderground v.1.15,2013-04-30 08:10:00,
2013-04-30 04:20:00,40.3,35.8,30.24,ESE,120,1.0,1.0,84,0.00,,,0.00,Wunderground v.1.15,2013-04-30 08:20:00,
2013-04-30 04:30:00,39.9,35.8,30.24,ESE,120,0.0,0.0,85,0.00,,,0.00,Wunderground v.1.15,2013-04-30 08:30:00,
2013-04-30 04:40:00,39.6,35.8,30.25,ESE,120,0.0,0.0,86,0.00,,,0.00,Wunderground v.1.15,2013-04-30 08:40:00,
2013-04-30 04:50:00,39.3,35.8,30.25,ESE,120,0.0,0.0,87,0.00,,,0.00,Wunderground v.1.15,2013-04-30 08:50:00,
2013-04-30 05:00:00,39.6,35.8,30.25,ESE,120,0.0,0.0,86,0.00,,,0.00,Wunderground v.1.15,2013-04-30 09:00:00,
2013-04-30 05:10:00,39.3,35.5,30.25,ESE,120,0.0,0.0,86,0.00,,,0.00,Wunderground v.1.15,2013-04-30 09:10:00,
2013-04-30 05:20:00,38.9,35.4,30.26,ESE,120,0.0,0.0,87,0.00,,,0.00,Wunderground v.1.15,2013-04-30 09:20:00,
2013-04-30 05:30:00,38.6,35.1,30.26,ESE,120,0.0,0.0,87,0.00,,,0.00,Wunderground v.1.15,2013-04-30 09:30:00,
2013-04-30 05:40:00,38.3,34.8,30.27,ESE,120,0.0,0.0,87,0.00,,,0.00,Wunderground v.1.15,2013-04-30 09:40:00,
2013-04-30 05:50:00,38.3,34.8,30.27,ESE,120,0.0,0.0,87,0.00,,,0.00,Wunderground v.1.15,2013-04-30 09:50:00,
2013-04-30 06:00:00,38.9,35.4,30.27,ESE,120,0.0,0.0,87,0.00,,,0.00,Wunderground v.1.15,2013-04-30 10:00:00,
2013-04-30 06:10:00,39.5,36.0,30.27,ESE,120,0.0,0.0,87,0.00,,,0.00,Wunderground v.1.15,2013-04-30 10:10:00,
2013-04-30 06:20:00,39.9,36.3,30.28,ESE,120,0.0,0.0,87,0.00,,,0.00,Wunderground v.1.15,2013-04-30 10:20:00,
2013-04-30 06:30:00,39.9,36.6,30.28,ESE,120,0.0,0.0,88,0.00,,,0.00,Wunderground v.1.15,2013-04-30 10:30:00,
2013-04-30 06:40:00,41.3,38.3,30.28,ESE,120,0.0,0.0,89,0.00,,,0.00,Wunderground v.1.15,2013-04-30 10:40:00,
2013-04-30 06:50:00,41.5,37.6,30.29,ESE,120,0.0,0.0,86,0.00,,,0.00,Wunderground v.1.15,2013-04-30 10:50:00,
2013-04-30 07:00:00,42.6,39.0,30.29,ESE,120,0.0,0.0,87,0.00,,,0.00,Wunderground v.1.15,2013-04-30 11:00:00,
2013-04-30 07:10:00,43.3,40.0,30.29,ESE,120,0.0,0.0,88,0.00,,,0.00,Wunderground v.1.15,2013-04-30 11:10:00,
2013-04-30 07:20:00,45.2,40.7,30.29,ESE,120,0.0,0.0,84,0.00,,,0.00,Wunderground v.1.15,2013-04-30 11:20:00,
2013-04-30 07:30:00,46.7,41.2,30.29,ESE,120,0.0,0.0,81,0.00,,,0.00,Wunderground v.1.15,2013-04-30 11:30:00,
2013-04-30 07:40:00,47.4,40.9,30.29,ESE,120,0.0,0.0,78,0.00,,,0.00,Wunderground v.1.15,2013-04-30 11:40:00,
2013-04-30 07:50:00,48.6,42.0,30.30,ESE,115,0.0,1.0,78,0.00,,,0.00,Wunderground v.1.15,2013-04-30 11:50:00,
2013-04-30 08:00:00,49.4,42.1,30.30,ESE,115,0.0,0.0,76,0.00,,,0.00,Wunderground v.1.15,2013-04-30 12:00:00,
2013-04-30 08:10:00,50.5,42.2,30.30,ESE,115,0.0,1.0,73,0.00,,,0.00,Wunderground v.1.15,2013-04-30 12:10:00,
2013-04-30 08:20:00,51.7,42.2,30.30,ESE,115,0.0,0.0,70,0.00,,,0.00,Wunderground v.1.15,2013-04-30 12:20:00,
2013-04-30 08:30:00,52.5,42.6,30.30,ESE,115,0.0,1.0,69,0.00,,,0.00,Wunderground v.1.15,2013-04-30 12:30:00,
2013-04-30 08:40:00,53.2,42.9,30.30,NE,50,1.0,1.0,68,0.00,,,0.00,Wunderground v.1.15,2013-04-30 12:40:00,
2013-04-30 08:50:00,53.9,44.0,30.31,ENE,61,1.0,2.0,69,0.00,,,0.00,Wunderground v.1.15,2013-04-30 12:50:00,
2013-04-30 09:00:00,54.7,42.8,30.31,NE,55,1.0,2.0,64,0.00,,,0.00,Wunderground v.1.15,2013-04-30 13:00:00,
2013-04-30 09:10:00,55.9,41.3,30.31,NE,54,1.0,3.0,58,0.00,,,0.00,Wunderground v.1.15,2013-04-30 13:10:00,
2013-04-30 09:20:00,56.6,42.0,30.31,East,79,1.0,1.0,58,0.00,,,0.00,Wunderground v.1.15,2013-04-30 13:20:00,
2013-04-30 09:30:00,57.2,41.2,30.31,ENE,73,2.0,2.0,55,0.00,,,0.00,Wunderground v.1.15,2013-04-30 13:30:00,
2013-04-30 09:40:00,58.4,43.2,30.31,ENE,75,2.0,3.0,57,0.00,,,0.00,Wunderground v.1.15,2013-04-30 13:40:00,
2013-04-30 09:50:00,58.4,42.3,30.31,NE,52,3.0,3.0,55,0.00,,,0.00,Wunderground v.1.15,2013-04-30 13:50:00,
2013-04-30 10:00:00,59.0,41.4,30.31,East,93,4.0,4.0,52,0.00,,,0.00,Wunderground v.1.15,2013-04-30 14:00:00,
2013-04-30 10:10:00,59.0,38.2,30.31,East,82,6.0,6.0,46,0.00,,,0.00,Wunderground v.1.15,2013-04-30 14:10:00,
2013-04-30 10:20:00,59.5,38.1,30.31,ENE,58,6.0,6.0,45,0.00,,,0.00,Wunderground v.1.15,2013-04-30 14:20:00,
2013-04-30 10:30:00,59.8,39.0,30.31,ENE,77,7.0,7.0,46,0.00,,,0.00,Wunderground v.1.15,2013-04-30 14:30:00,
2013-04-30 10:40:00,59.6,37.6,30.31,East,81,8.0,9.0,44,0.00,,,0.00,Wunderground v.1.15,2013-04-30 14:40:00,
2013-04-30 10:50:00,60.2,37.6,30.31,East,86,7.0,7.0,43,0.00,,,0.00,Wunderground v.1.15,2013-04-30 14:50:00,
2013-04-30 11:00:00,60.2,39.3,30.31,ESE,106,7.0,7.0,46,0.00,,,0.00,Wunderground v.1.15,2013-04-30 15:00:00,
2013-04-30 11:10:00,60.1,37.5,30.31,ESE,102,6.0,6.0,43,0.00,,,0.00,Wunderground v.1.15,2013-04-30 15:10:00,
2013-04-30 11:20:00,60.1,38.7,30.31,ESE,108,7.0,9.0,45,0.00,,,0.00,Wunderground v.1.15,2013-04-30 15:20:00,
2013-04-30 11:30:00,60.7,40.3,30.31,East,96,7.0,7.0,47,0.00,,,0.00,Wunderground v.1.15,2013-04-30 15:30:00,
2013-04-30 11:40:00,60.4,38.9,30.31,East,85,7.0,7.0,45,0.00,,,0.00,Wunderground v.1.15,2013-04-30 15:40:00,
2013-04-30 11:50:00,59.9,38.5,30.31,East,85,7.0,10.0,45,0.00,,,0.00,Wunderground v.1.15,2013-04-30 15:50:00,
2013-04-30 12:00:00,60.9,41.6,30.31,East,91,7.0,7.0,49,0.00,,,0.00,Wunderground v.1.15,2013-04-30 16:00:00,
2013-04-30 12:10:00,60.4,39.5,30.31,East,79,9.0,9.0,46,0.00,,,0.00,Wunderground v.1.15,2013-04-30 16:10:00,
2013-04-30 12:20:00,60.4,39.5,30.30,East,99,8.0,8.0,46,0.00,,,0.00,Wunderground v.1.15,2013-04-30 16:20:00,
2013-04-30 12:30:00,60.5,34.1,30.30,East,82,8.0,8.0,37,0.00,,,0.00,Wunderground v.1.15,2013-04-30 16:30:00,
2013-04-30 12:40:00,60.7,33.6,30.30,East,94,7.0,10.0,36,0.00,,,0.00,Wunderground v.1.15,2013-04-30 16:40:00,
2013-04-30 12:50:00,61.0,31.7,30.30,East,97,7.0,7.0,33,0.00,,,0.00,Wunderground v.1.15,2013-04-30 16:50:00,
2013-04-30 13:00:00,61.3,32.7,30.30,SE,131,6.0,6.0,34,0.00,,,0.00,Wunderground v.1.15,2013-04-30 17:00:00,
2013-04-30 13:10:00,62.1,31.1,30.30,East,89,6.0,12.0,31,0.00,,,0.00,Wunderground v.1.15,2013-04-30 17:10:00,
2013-04-30 13:20:00,61.8,30.0,30.30,East,88,7.0,7.0,30,0.00,,,0.00,Wunderground v.1.15,2013-04-30 17:20:00,
2013-04-30 13:30:00,62.0,31.0,30.30,ESE,114,8.0,8.0,31,0.00,,,0.00,Wunderground v.1.15,2013-04-30 17:30:00,
2013-04-30 13:40:00,62.4,31.3,30.30,ESE,115,7.0,7.0,31,0.00,,,0.00,Wunderground v.1.15,2013-04-30 17:40:00,
2013-04-30 13:50:00,61.8,31.6,30.30,SE,135,9.0,9.0,32,0.00,,,0.00,Wunderground v.1.15,2013-04-30 17:50:00,
2013-04-30 14:00:00,62.1,28.6,30.30,East,98,7.0,7.0,28,0.00,,,0.00,Wunderground v.1.15,2013-04-30 18:00:00,
2013-04-30 14:10:00,61.5,30.6,30.30,East,84,7.0,7.0,31,0.00,,,0.00,Wunderground v.1.15,2013-04-30 18:10:00,
2013-04-30 14:20:00,61.6,29.8,30.30,East,86,7.0,7.0,30,0.00,,,0.00,Wunderground v.1.15,2013-04-30 18:20:00,
2013-04-30 14:30:00,61.3,27.9,30.30,ESE,107,8.0,8.0,28,0.00,,,0.00,Wunderground v.1.15,2013-04-30 18:30:00,
2013-04-30 14:40:00,61.0,28.5,30.30,East,81,9.0,9.0,29,0.00,,,0.00,Wunderground v.1.15,2013-04-30 18:40:00,
2013-04-30 14:50:00,61.5,29.7,30.30,East,86,9.0,9.0,30,0.00,,,0.00,Wunderground v.1.15,2013-04-30 18:50:00,
2013-04-30 15:00:00,61.3,31.2,30.30,ESE,117,9.0,10.0,32,0.00,,,0.00,Wunderground v.1.15,2013-04-30 19:00:00,
2013-04-30 15:10:00,62.0,34.0,30.30,ESE,106,8.0,11.0,35,0.00,,,0.00,Wunderground v.1.15,2013-04-30 19:10:00,
2013-04-30 15:20:00,61.6,33.7,30.30,SE,138,7.0,7.0,35,0.00,,,0.00,Wunderground v.1.15,2013-04-30 19:20:00,
2013-04-30 15:30:00,61.6,34.4,30.30,SE,131,8.0,8.0,36,0.00,,,0.00,Wunderground v.1.15,2013-04-30 19:30:00,
2013-04-30 15:40:00,61.6,36.4,30.30,ESE,106,7.0,7.0,39,0.00,,,0.00,Wunderground v.1.15,2013-04-30 19:40:00,
2013-04-30 15:50:00,62.0,32.5,30.30,SE,131,6.0,6.0,33,0.00,,,0.00,Wunderground v.1.15,2013-04-30 19:50:00,
2013-04-30 16:00:00,61.8,30.8,30.30,SE,135,5.0,5.0,31,0.00,,,0.00,Wunderground v.1.15,2013-04-30 20:00:00,
2013-04-30 16:10:00,62.4,32.1,30.30,ESE,120,6.0,8.0,32,0.00,,,0.00,Wunderground v.1.15,2013-04-30 20:10:00,
2013-04-30 16:20:00,62.6,30.7,30.30,SE,145,5.0,5.0,30,0.00,,,0.00,Wunderground v.1.15,2013-04-30 20:20:00,
2013-04-30 16:30:00,62.4,30.5,30.30,SSE,153,4.0,4.0,30,0.00,,,0.00,Wunderground v.1.15,2013-04-30 20:30:00,
2013-04-30 16:40:00,62.6,31.5,30.30,SE,141,4.0,4.0,31,0.00,,,0.00,Wunderground v.1.15,2013-04-30 20:40:00,
2013-04-30 16:50:00,62.7,31.6,30.30,South,178,3.0,3.0,31,0.00,,,0.00,Wunderground v.1.15,2013-04-30 20:50:00,
2013-04-30 17:00:00,63.5,30.6,30.30,SSE,150,2.0,3.0,29,0.00,,,0.00,Wunderground v.1.15,2013-04-30 21:00:00,
2013-04-30 17:10:00,62.7,30.0,30.30,SE,132,3.0,3.0,29,0.00,,,0.00,Wunderground v.1.15,2013-04-30 21:10:00,
2013-04-30 17:20:00,62.6,29.9,30.30,SE,134,3.0,3.0,29,0.00,,,0.00,Wunderground v.1.15,2013-04-30 21:20:00,
2013-04-30 17:30:00,62.6,29.9,30.30,SE,144,3.0,3.0,29,0.00,,,0.00,Wunderground v.1.15,2013-04-30 21:30:00,
2013-04-30 17:40:00,62.9,31.8,30.30,SSE,153,1.0,1.0,31,0.00,,,0.00,Wunderground v.1.15,2013-04-30 21:40:00,
2013-04-30 17:50:00,63.1,30.3,30.30,South,178,2.0,2.0,29,0.00,,,0.00,Wunderground v.1.15,2013-04-30 21:50:00,
2013-04-30 18:00:00,62.7,30.8,30.30,SW,219,1.0,2.0,30,0.00,,,0.00,Wunderground v.1.15,2013-04-30 22:00:00,
2013-04-30 18:10:00,62.3,30.4,30.31,SE,146,1.0,2.0,30,0.00,,,0.00,Wunderground v.1.15,2013-04-30 22:10:00,
2013-04-30 18:20:00,61.6,30.6,30.31,SW,224,2.0,2.0,31,0.00,,,0.00,Wunderground v.1.15,2013-04-30 22:20:00,
2013-04-30 18:30:00,61.3,30.4,30.31,SW,232,2.0,2.0,31,0.00,,,0.00,Wunderground v.1.15,2013-04-30 22:30:00,
2013-04-30 18:40:00,60.9,31.6,30.31,SSE,166,1.0,1.0,33,0.00,,,0.00,Wunderground v.1.15,2013-04-30 22:40:00,
2013-04-30 18:50:00,60.1,30.1,30.32,SE,145,1.0,1.0,32,0.00,,,0.00,Wunderground v.1.15,2013-04-30 22:50:00,
2013-04-30 19:00:00,59.5,31.1,30.32,SSE,153,0.0,0.0,34,0.00,,,0.00,Wunderground v.1.15,2013-04-30 23:00:00,
2013-04-30 19:10:00,59.0,31.4,30.32,SSE,166,0.0,0.0,35,0.00,,,0.00,Wunderground v.1.15,2013-04-30 23:10:00,
2013-04-30 19:20:00,58.0,31.2,30.32,SSE,166,0.0,0.0,36,0.00,,,0.00,Wunderground v.1.15,2013-04-30 23:20:00,
2013-04-30 19:30:00,56.7,28.6,30.32,SW,224,0.0,2.0,34,0.00,,,0.00,Wunderground v.1.15,2013-04-30 23:30:00,
2013-04-30 19:40:00,55.4,27.5,30.33,SW,224,0.0,0.0,34,0.00,,,0.00,Wunderground v.1.15,2013-04-30 23:40:00,
2013-04-30 19:50:00,54.4,27.3,30.33,SW,224,0.0,0.0,35,0.00,,,0.00,Wunderground v.1.15,2013-04-30 23:50:00,
2013-04-30 20:00:00,53.9,26.1,30.33,SW,224,0.0,0.0,34,0.00,,,0.00,Wunderground v.1.15,2013-05-01 00:00:00,
2013-04-30 20:10:00,53.5,25.8,30.33,SW,224,0.0,0.0,34,0.00,,,0.00,Wunderground v.1.15,2013-05-01 00:10:00,
2013-04-30 20:20:00,52.5,26.3,30.33,SW,224,0.0,0.0,36,0.00,,,0.00,Wunderground v.1.15,2013-05-01 00:20:00,
2013-04-30 20:30:00,52.2,26.7,30.33,SW,224,0.0,0.0,37,0.00,,,0.00,Wunderground v.1.15,2013-05-01 00:30:00,
2013-04-30 20:40:00,52.0,28.4,30.33,SW,224,0.0,2.0,40,0.00,,,0.00,Wunderground v.1.15,2013-05-01 00:40:00,
2013-04-30 20:50:00,51.7,28.7,30.33,SW,230,2.0,2.0,41,0.00,,,0.00,Wunderground v.1.15,2013-05-01 00:50:00,
2013-04-30 21:00:00,51.6,28.6,30.34,SW,229,1.0,1.0,41,0.00,,,0.00,Wunderground v.1.15,2013-05-01 01:00:00,
2013-04-30 21:10:00,51.6,29.8,30.34,SW,229,0.0,0.0,43,0.00,,,0.00,Wunderground v.1.15,2013-05-01 01:10:00,
2013-04-30 21:20:00,51.1,30.5,30.34,SW,229,0.0,0.0,45,0.00,,,0.00,Wunderground v.1.15,2013-05-01 01:20:00,
2013-04-30 21:30:00,49.8,30.4,30.34,SW,229,0.0,0.0,47,0.00,,,0.00,Wunderground v.1.15,2013-05-01 01:30:00,
2013-04-30 21:40:00,49.4,30.0,30.34,SW,229,0.0,1.0,47,0.00,,,0.00,Wunderground v.1.15,2013-05-01 01:40:00,
2013-04-30 21:50:00,49.8,28.2,30.34,SW,229,1.0,1.0,43,0.00,,,0.00,Wunderground v.1.15,2013-05-01 01:50:00,
2013-04-30 22:00:00,49.5,29.0,30.34,SW,233,1.0,1.0,45,0.00,,,0.00,Wunderground v.1.15,2013-05-01 02:00:00,
2013-04-30 22:10:00,48.9,29.0,30.34,SW,233,0.0,0.0,46,0.00,,,0.00,Wunderground v.1.15,2013-05-01 02:10:00,
2013-04-30 22:20:00,48.2,28.9,30.34,SW,233,0.0,0.0,47,0.00,,,0.00,Wunderground v.1.15,2013-05-01 02:20:00,
2013-04-30 22:30:00,48.9,27.9,30.34,SW,232,0.0,0.0,44,0.00,,,0.00,Wunderground v.1.15,2013-05-01 02:30:00,
2013-04-30 22:40:00,48.9,29.0,30.34,SW,231,0.0,0.0,46,0.00,,,0.00,Wunderground v.1.15,2013-05-01 02:40:00,
2013-04-30 22:50:00,48.2,28.9,30.34,SW,231,0.0,0.0,47,0.00,,,0.00,Wunderground v.1.15,2013-05-01 02:50:00,
2013-04-30 23:00:00,48.0,28.7,30.34,SW,231,0.0,0.0,47,0.00,,,0.00,Wunderground v.1.15,2013-05-01 03:00:00,
2013-04-30 23:10:00,48.0,29.2,30.34,SW,231,1.0,1.0,48,0.00,,,0.00,Wunderground v.1.15,2013-05-01 03:10:00,
2013-04-30 23:20:00,47.4,28.2,30.34,SW,231,0.0,0.0,47,0.00,,,0.00,Wunderground v.1.15,2013-05-01 03:20:00,
2013-04-30 23:30:00,47.9,25.3,30.34,SW,231,0.0,0.0,41,0.00,,,0.00,Wunderground v.1.15,2013-05-01 03:30:00,
2013-04-30 23:40:00,48.2,26.2,30.34,SW,231,0.0,0.0,42,0.00,,,0.00,Wunderground v.1.15,2013-05-01 03:40:00,
2013-04-30 23:50:00,48.5,22.7,30.34,SW,231,0.0,1.0,36,0.00,,,0.00,Wunderground v.1.15,2013-05-01 03:50:00,